Weather History for LIVP - September, 2013

Change the Weather History Date:

Wednesday, September 18, 2013

  Actual Average Record
Temperature  
Mean Temperature 40 °F -  
Max Temperature 49 °F 46 °F 62 °F (2003)
Min Temperature 31 °F 37 °F 28 °F (2001)
Degree Days  
Heating Degree Days 25    
Moisture  
Dew Point 32 °F    
Average Humidity 74    
Maximum Humidity 100    
Minimum Humidity 51    
Precipitation  
Precipitation 0.00 in 0.11 in - ()
Sea Level Pressure  
Sea Level Pressure 29.72 in    
Wind  
Wind Speed 10 mph ()    
Max Wind Speed 18 mph    
Max Gust Speed -    
Visibility 9.1 miles    
Events Fog    
Averages and records for this station are not official NWS values.
T = Trace of Precipitation, MM = Missing Value Source: Averaged Metar Reports

Daily Weather History Graph

Daily Weather History Graph

Search for Another Location

Airport or City:

Trip Planner

Search our weather history database for the weather conditions in past years. The results will help you decide how hot, cold, wet, or windy it might be!

Date:

Astronomy

Sep. 18, 2013 Rise Set
Actual Time 6:57 AM CEST 7:21 PM CEST
Civil Twilight 6:27 AM CEST 7:51 PM CEST
Nautical Twilight 5:52 AM CEST 8:26 PM CEST
Astronomical Twilight 5:15 AM CEST 9:03 PM CEST
Moon 6:34 PM CEST (9/18) 5:39 AM CEST (9/18)
Length of Visible Light 13h 23m
Length of Day
12h 23m
Waxing Gibbous, 99% of the Moon is Illuminated
Sep 18
Waxing Gibbous
Sep 19
Full
Sep 27
Last Quarter
Oct 5
New
Oct 12
First Quarter

Hourly Weather History & Observations

Time (CEST) Temp. Windchill Dew Point Humidity Pressure Visibility Wind Dir Wind Speed Gust Speed Precip Events Conditions
12:55 AM 32.0 °F 24.2 °F 21.2 °F 64% 29.77 in 6.2 mi SSW 9.2 mph - N/A   Scattered Clouds
1:55 AM 32.0 °F 24.2 °F 28.4 °F 87% 29.74 in 6.2 mi SSW 9.2 mph - N/A   Scattered Clouds
2:00 AM 32 °F - 28 °F 78%  in 19 mi SSW 9.2 mph - -   Mostly Cloudy
2:55 AM 32.0 °F 24.2 °F 30.2 °F 93% 29.74 in 6.2 mi SSW 9.2 mph - N/A   Scattered Clouds
3:55 AM 32.0 °F 23.0 °F 32.0 °F 100% 29.71 in 6.2 mi SSW 11.5 mph - N/A   Partly Cloudy
4:55 AM 32.0 °F 24.2 °F 28.4 °F 87% 29.71 in 6.2 mi WSW 9.2 mph - N/A   Scattered Clouds
5:00 AM 32 °F - 28 °F 80%  in 19 mi WSW 9.2 mph - -   Partly Cloudy
5:55 AM 32.0 °F 20.8 °F 28.4 °F 87% 29.71 in - WSW 17.3 mph - N/A   Clear
6:55 AM 32.0 °F 23.0 °F 28.4 °F 87% 29.71 in 6.2 mi WSW 11.5 mph - N/A   Partly Cloudy
7:55 AM 32.0 °F 20.5 °F 26.6 °F 80% 29.71 in 6.2 mi WSW 18.4 mph - N/A   Scattered Clouds
8:00 AM 32 °F - 27 °F 74%  in 19 mi WSW 18.4 mph - -   Partly Cloudy
8:55 AM 35.6 °F 25.2 °F 26.6 °F 70% 29.71 in 6.2 mi WSW 18.4 mph - N/A   Scattered Clouds
9:55 AM 37.4 °F 28.2 °F 28.4 °F 70% 29.71 in 6.2 mi SSW 16.1 mph - N/A   Scattered Clouds
10:55 AM 41.0 °F 32.5 °F 30.2 °F 65% 29.74 in 6.2 mi SW 17.3 mph - N/A   Scattered Clouds
11:00 AM 41 °F - 31 °F 57%  in 31 mi SW 17.3 mph - -   Partly Cloudy
11:55 AM 42.8 °F 38.6 °F 32.0 °F 66% 29.74 in 6.2 mi WSW 6.9 mph - N/A   Scattered Clouds
12:55 PM 44.6 °F 39.7 °F 33.8 °F 66% 29.71 in 6.2 mi WSW 9.2 mph - N/A   Partly Cloudy
1:55 PM 46.4 °F 41.9 °F 33.8 °F 62% 29.71 in 6.2 mi WSW 9.2 mph - N/A   Partly Cloudy
2:00 PM 46 °F - 34 °F 52%  in 19 mi WSW 9.2 mph - -   Scattered Clouds
2:55 PM 48.2 °F - 35.6 °F 62% 29.74 in 6.2 mi West 6.9 mph - N/A   Partly Cloudy
3:55 PM 48.2 °F - 37.4 °F 66% 29.71 in - North 5.8 mph - N/A   Clear
4:55 PM 46.4 °F 40.4 °F 33.8 °F 62% 29.71 in - SSW 13.8 mph - N/A   Clear
5:00 PM 47 °F - 35 °F 51%  in 19 mi SSW 13.8 mph - -   Partly Cloudy
5:55 PM 44.6 °F 37.8 °F 32.0 °F 61% 29.71 in - SW 15.0 mph - N/A   Clear
6:55 PM 42.8 °F 37.0 °F 33.8 °F 70% 29.71 in - SW 10.4 mph - N/A   Clear
7:55 PM 41.0 °F 33.9 °F 35.6 °F 81% 29.71 in - SW 12.7 mph - N/A   Clear
8:00 PM 42 °F - 35 °F 70%  in 16 mi SW 12.7 mph - -   Mostly Cloudy
8:55 PM 41.0 °F 34.7 °F 32.0 °F 70% 29.71 in - SW 10.4 mph - N/A   Clear
9:55 PM 41.0 °F 35.2 °F 35.6 °F 81% 29.71 in - SSW 9.2 mph - N/A   Clear
10:55 PM 41.0 °F 38.0 °F 37.4 °F 87% 29.71 in 0.6 mi South 4.6 mph - N/A Fog Fog
11:00 PM 40 °F - 37 °F 85%  in 1 mi South 4.6 mph - - Fog Heavy Fog
11:55 PM 39.2 °F 33.6 °F 37.4 °F 93% 29.71 in - SSW 8.1 mph - N/A   Clear